Year,Month,Day,Hour,Minute,Value (Times are PST for windspeed in km/hr)
2008,10,06,00,00,2.80
2008,10,06,00,01,3.20
2008,10,06,00,02,3.50
2008,10,06,00,03,3.70
2008,10,06,00,04,4.30
2008,10,06,00,05,3.30
2008,10,06,00,06,2.80
2008,10,06,00,07,2.90
2008,10,06,00,08,2.70
2008,10,06,00,09,2.70
2008,10,06,00,10,2.20
2008,10,06,00,11,3.00
2008,10,06,00,12,2.00
2008,10,06,00,13,1.40
2008,10,06,00,14,1.10
2008,10,06,00,15,1.00
2008,10,06,00,16,0.20
2008,10,06,00,17,1.30
2008,10,06,00,18,1.90
2008,10,06,00,19,3.00
2008,10,06,00,20,1.60
2008,10,06,00,21,4.80
2008,10,06,00,22,3.30
2008,10,06,00,23,2.50
2008,10,06,00,24,3.10
2008,10,06,00,25,2.00
2008,10,06,00,26,3.60
2008,10,06,00,27,3.40
2008,10,06,00,28,2.70
2008,10,06,00,29,2.10
2008,10,06,00,30,1.50
2008,10,06,00,31,0.70
2008,10,06,00,32,2.20
2008,10,06,00,33,2.30
2008,10,06,00,34,2.80
2008,10,06,00,35,2.80
2008,10,06,00,36,2.20
2008,10,06,00,37,0.40
2008,10,06,00,38,0.60
2008,10,06,00,39,2.70
2008,10,06,00,40,2.00
2008,10,06,00,41,0.60
2008,10,06,00,42,0.20
2008,10,06,00,43,1.00
2008,10,06,00,44,0.50
2008,10,06,00,45,1.20
2008,10,06,00,46,3.90
2008,10,06,00,47,3.70
2008,10,06,00,48,5.70
2008,10,06,00,49,3.40
2008,10,06,00,50,2.30
2008,10,06,00,51,0.80
2008,10,06,00,52,1.50
2008,10,06,00,53,3.20
2008,10,06,00,54,3.00
2008,10,06,00,55,3.20
2008,10,06,00,56,2.70
2008,10,06,00,57,3.20
2008,10,06,00,58,2.50
2008,10,06,00,59,1.30
2008,10,06,01,00,1.40
2008,10,06,01,01,2.20
2008,10,06,01,02,1.60
2008,10,06,01,03,3.50
2008,10,06,01,04,3.00
2008,10,06,01,05,3.40
2008,10,06,01,06,3.60
2008,10,06,01,07,3.30
2008,10,06,01,08,3.30
2008,10,06,01,09,2.30
2008,10,06,01,10,0.80
2008,10,06,01,11,2.30
2008,10,06,01,12,3.20
2008,10,06,01,13,0.50
2008,10,06,01,14,1.00
2008,10,06,01,15,1.10
2008,10,06,01,16,0.40
2008,10,06,01,17,0.50
2008,10,06,01,18,2.10
2008,10,06,01,19,2.30
2008,10,06,01,20,3.20
2008,10,06,01,21,1.10
2008,10,06,01,22,2.30
2008,10,06,01,23,0.80
2008,10,06,01,24,0.00
2008,10,06,01,25,0.00
2008,10,06,01,26,0.30
2008,10,06,01,27,1.50
2008,10,06,01,28,0.00
2008,10,06,01,29,0.00
2008,10,06,01,30,0.00
2008,10,06,01,31,0.00
2008,10,06,01,32,0.00
2008,10,06,01,33,0.00
2008,10,06,01,34,0.00
2008,10,06,01,35,0.00
2008,10,06,01,36,0.10
2008,10,06,01,37,2.10
2008,10,06,01,38,0.90
2008,10,06,01,39,0.20
2008,10,06,01,40,1.70
2008,10,06,01,41,0.00
2008,10,06,01,42,0.00
2008,10,06,01,43,0.00
2008,10,06,01,44,0.00
2008,10,06,01,45,0.00
2008,10,06,01,46,1.60
2008,10,06,01,47,2.30
2008,10,06,01,48,2.30
2008,10,06,01,49,2.30
2008,10,06,01,50,2.80
2008,10,06,01,51,2.20
2008,10,06,01,52,3.00
2008,10,06,01,53,3.00
2008,10,06,01,54,3.30
2008,10,06,01,55,3.40
2008,10,06,01,56,4.40
2008,10,06,01,57,2.60
2008,10,06,01,58,2.80
2008,10,06,01,59,1.50
2008,10,06,02,00,2.80
2008,10,06,02,01,2.20
2008,10,06,02,02,2.20
2008,10,06,02,03,3.30
2008,10,06,02,04,3.70
2008,10,06,02,05,1.90
2008,10,06,02,06,3.60
2008,10,06,02,07,2.40
2008,10,06,02,08,1.60
2008,10,06,02,09,4.40
2008,10,06,02,10,2.30
2008,10,06,02,11,2.90
2008,10,06,02,12,3.20
2008,10,06,02,13,2.90
2008,10,06,02,14,2.30
2008,10,06,02,15,1.60
2008,10,06,02,16,1.80
2008,10,06,02,17,2.30
2008,10,06,02,18,2.30
2008,10,06,02,19,1.10
2008,10,06,02,20,1.20
2008,10,06,02,21,0.70
2008,10,06,02,22,0.80
2008,10,06,02,23,0.60
2008,10,06,02,24,2.50
2008,10,06,02,25,2.80
2008,10,06,02,26,2.40
2008,10,06,02,27,2.80
2008,10,06,02,28,2.70
2008,10,06,02,29,3.20
2008,10,06,02,30,3.70
2008,10,06,02,31,2.30
2008,10,06,02,32,3.10
2008,10,06,02,33,3.70
2008,10,06,02,34,2.70
2008,10,06,02,35,2.40
2008,10,06,02,36,2.30
2008,10,06,02,37,2.30
2008,10,06,02,38,2.10
2008,10,06,02,39,2.30
2008,10,06,02,40,2.50
2008,10,06,02,41,0.80
2008,10,06,02,42,0.70
2008,10,06,02,43,0.60
2008,10,06,02,44,0.50
2008,10,06,02,45,0.00
2008,10,06,02,46,0.00
2008,10,06,02,47,0.00
2008,10,06,02,48,0.90
2008,10,06,02,49,0.20
2008,10,06,02,50,0.10
2008,10,06,02,51,0.10
2008,10,06,02,52,0.00
2008,10,06,02,53,0.00
2008,10,06,02,54,0.00
2008,10,06,02,55,0.00
2008,10,06,02,56,0.00
2008,10,06,02,57,0.00
2008,10,06,02,58,0.00
2008,10,06,02,59,0.00
2008,10,06,03,00,0.00
2008,10,06,03,01,1.10
2008,10,06,03,02,0.40
2008,10,06,03,03,0.00
2008,10,06,03,04,0.00
2008,10,06,03,05,0.00
2008,10,06,03,06,0.00
2008,10,06,03,07,0.00
2008,10,06,03,08,0.00
2008,10,06,03,09,0.00
2008,10,06,03,10,0.00
2008,10,06,03,11,0.00
2008,10,06,03,12,0.00
2008,10,06,03,13,0.00
2008,10,06,03,14,0.00
2008,10,06,03,15,0.00
2008,10,06,03,16,0.00
2008,10,06,03,17,0.00
2008,10,06,03,18,0.00
2008,10,06,03,19,0.00
2008,10,06,03,20,0.00
2008,10,06,03,21,0.00
2008,10,06,03,22,0.00
2008,10,06,03,23,0.00
2008,10,06,03,24,0.00
2008,10,06,03,25,0.00
2008,10,06,03,26,0.00
2008,10,06,03,27,0.20
2008,10,06,03,28,2.10
2008,10,06,03,29,2.60
2008,10,06,03,30,2.10
2008,10,06,03,31,1.70
2008,10,06,03,32,1.70
2008,10,06,03,33,0.50
2008,10,06,03,34,0.00
2008,10,06,03,35,0.00
2008,10,06,03,36,0.00
2008,10,06,03,37,0.00
2008,10,06,03,38,1.10
2008,10,06,03,39,2.00
2008,10,06,03,40,2.10
2008,10,06,03,41,2.90
2008,10,06,03,42,2.90
2008,10,06,03,43,1.90
2008,10,06,03,44,0.10
2008,10,06,03,45,0.00
2008,10,06,03,46,0.00
2008,10,06,03,47,0.00
2008,10,06,03,48,0.00
2008,10,06,03,49,0.00
2008,10,06,03,50,0.00
2008,10,06,03,51,0.00
2008,10,06,03,52,0.00
2008,10,06,03,53,0.00
2008,10,06,03,54,1.60
2008,10,06,03,55,2.40
2008,10,06,03,56,1.60
2008,10,06,03,57,1.70
2008,10,06,03,58,1.80
2008,10,06,03,59,2.20
2008,10,06,04,00,2.30
2008,10,06,04,01,2.70
2008,10,06,04,02,4.30
2008,10,06,04,03,4.60
2008,10,06,04,04,4.20
2008,10,06,04,05,3.10
2008,10,06,04,06,2.30
2008,10,06,04,07,2.80
2008,10,06,04,08,2.50
2008,10,06,04,09,2.50
2008,10,06,04,10,2.50
2008,10,06,04,11,2.30
2008,10,06,04,12,2.90
2008,10,06,04,13,2.20
2008,10,06,04,14,2.30
2008,10,06,04,15,1.30
2008,10,06,04,16,0.40
2008,10,06,04,17,1.60
2008,10,06,04,18,2.50
2008,10,06,04,19,1.60
2008,10,06,04,20,2.20
2008,10,06,04,21,2.60
2008,10,06,04,22,2.70
2008,10,06,04,23,3.10
2008,10,06,04,24,2.50
2008,10,06,04,25,2.60
2008,10,06,04,26,2.30
2008,10,06,04,27,2.00
2008,10,06,04,28,1.60
2008,10,06,04,29,1.70
2008,10,06,04,30,1.40
2008,10,06,04,31,0.90
2008,10,06,04,32,2.00
2008,10,06,04,33,1.30
2008,10,06,04,34,0.70
2008,10,06,04,35,1.60
2008,10,06,04,36,2.00
2008,10,06,04,37,2.00
2008,10,06,04,38,1.60
2008,10,06,04,39,1.10
2008,10,06,04,40,0.40
2008,10,06,04,41,0.00
2008,10,06,04,42,0.00
2008,10,06,04,43,0.00
2008,10,06,04,44,0.00
2008,10,06,04,45,0.00
2008,10,06,04,46,0.00
2008,10,06,04,47,0.00
2008,10,06,04,48,0.00
2008,10,06,04,49,0.00
2008,10,06,04,50,0.00
2008,10,06,04,51,0.00
2008,10,06,04,52,0.00
2008,10,06,04,53,0.00
2008,10,06,04,54,0.00
2008,10,06,04,55,0.00
2008,10,06,04,56,0.00
2008,10,06,04,57,0.00
2008,10,06,04,58,0.20
2008,10,06,04,59,1.70
2008,10,06,05,00,0.00
2008,10,06,05,01,0.30
2008,10,06,05,02,0.00
2008,10,06,05,03,0.10
2008,10,06,05,04,1.80
2008,10,06,05,05,2.40
2008,10,06,05,06,2.10
2008,10,06,05,07,2.60
2008,10,06,05,08,2.30
2008,10,06,05,09,2.40
2008,10,06,05,10,2.20
2008,10,06,05,11,2.50
2008,10,06,05,12,2.10
2008,10,06,05,13,1.90
2008,10,06,05,14,1.90
2008,10,06,05,15,2.00
2008,10,06,05,16,0.90
2008,10,06,05,17,1.50
2008,10,06,05,18,1.40
2008,10,06,05,19,1.60
2008,10,06,05,20,0.80
2008,10,06,05,21,0.10
2008,10,06,05,22,0.00
2008,10,06,05,23,0.00
2008,10,06,05,24,0.10
2008,10,06,05,25,0.00
2008,10,06,05,26,0.40
2008,10,06,05,27,0.00
2008,10,06,05,28,0.00
2008,10,06,05,29,0.70
2008,10,06,05,30,1.10
2008,10,06,05,31,0.00
2008,10,06,05,32,0.00
2008,10,06,05,33,0.00
2008,10,06,05,34,0.00
2008,10,06,05,35,0.00
2008,10,06,05,36,0.00
2008,10,06,05,37,0.00
2008,10,06,05,38,0.00
2008,10,06,05,39,0.00
2008,10,06,05,40,0.00
2008,10,06,05,41,0.00
2008,10,06,05,42,0.00
2008,10,06,05,43,0.00
2008,10,06,05,44,0.00
2008,10,06,05,45,0.00
2008,10,06,05,46,0.30
2008,10,06,05,47,2.10
2008,10,06,05,48,2.10
2008,10,06,05,49,1.90
2008,10,06,05,50,2.60
2008,10,06,05,51,2.50
2008,10,06,05,52,1.50
2008,10,06,05,53,0.20
2008,10,06,05,54,0.10
2008,10,06,05,55,0.20
2008,10,06,05,56,0.00
2008,10,06,05,57,0.40
2008,10,06,05,58,1.10
2008,10,06,05,59,0.00
2008,10,06,06,00,0.00
2008,10,06,06,01,0.00
2008,10,06,06,02,0.00
2008,10,06,06,03,0.00
2008,10,06,06,04,0.00
2008,10,06,06,05,1.40
2008,10,06,06,06,2.20
2008,10,06,06,07,3.20
2008,10,06,06,08,2.90
2008,10,06,06,09,3.70
2008,10,06,06,10,2.30
2008,10,06,06,11,1.90
2008,10,06,06,12,0.90
2008,10,06,06,13,0.10
2008,10,06,06,14,0.00
2008,10,06,06,15,0.00
2008,10,06,06,16,0.00
2008,10,06,06,17,0.00
2008,10,06,06,18,0.90
2008,10,06,06,19,2.10
2008,10,06,06,20,1.50
2008,10,06,06,21,1.00
2008,10,06,06,22,0.00
2008,10,06,06,23,0.00
2008,10,06,06,24,1.90
2008,10,06,06,25,1.30
2008,10,06,06,26,1.80
2008,10,06,06,27,1.10
2008,10,06,06,28,1.40
2008,10,06,06,29,2.00
2008,10,06,06,30,0.90
2008,10,06,06,31,1.20
2008,10,06,06,32,1.90
2008,10,06,06,33,0.90
2008,10,06,06,34,0.20
2008,10,06,06,35,0.40
2008,10,06,06,36,0.80
2008,10,06,06,37,1.60
2008,10,06,06,38,0.40
2008,10,06,06,39,2.00
2008,10,06,06,40,0.40
2008,10,06,06,41,0.00
2008,10,06,06,42,0.00
2008,10,06,06,43,1.60
2008,10,06,06,44,1.20
2008,10,06,06,45,0.10
2008,10,06,06,46,0.00
2008,10,06,06,47,0.00
2008,10,06,06,48,0.00
2008,10,06,06,49,0.00
2008,10,06,06,50,0.00
2008,10,06,06,51,0.00
2008,10,06,06,52,0.00
2008,10,06,06,53,0.00
2008,10,06,06,54,0.10
2008,10,06,06,55,0.10
2008,10,06,06,56,0.50
2008,10,06,06,57,1.50
2008,10,06,06,58,0.30
2008,10,06,06,59,0.10
2008,10,06,07,00,0.40
2008,10,06,07,01,1.70
2008,10,06,07,02,1.20
2008,10,06,07,03,0.20
2008,10,06,07,04,0.40
2008,10,06,07,05,0.00
2008,10,06,07,06,0.00
2008,10,06,07,07,0.00
2008,10,06,07,08,0.50
2008,10,06,07,09,0.00
2008,10,06,07,10,0.00
2008,10,06,07,11,0.00
2008,10,06,07,12,0.00
2008,10,06,07,13,0.00
2008,10,06,07,14,0.90
2008,10,06,07,15,1.90
2008,10,06,07,16,1.80
2008,10,06,07,17,1.00
2008,10,06,07,18,0.00
2008,10,06,07,19,0.00
2008,10,06,07,20,0.00
2008,10,06,07,21,0.00
2008,10,06,07,22,0.00
2008,10,06,07,23,0.00
2008,10,06,07,24,0.40
2008,10,06,07,25,1.30
2008,10,06,07,26,0.00
2008,10,06,07,27,0.00
2008,10,06,07,28,0.00
2008,10,06,07,29,0.00
2008,10,06,07,30,0.50
2008,10,06,07,31,0.60
2008,10,06,07,32,1.20
2008,10,06,07,33,0.00
2008,10,06,07,34,0.00
2008,10,06,07,35,0.00
2008,10,06,07,36,0.00
2008,10,06,07,37,0.00
2008,10,06,07,38,0.00
2008,10,06,07,39,0.00
2008,10,06,07,40,0.00
2008,10,06,07,41,0.00
2008,10,06,07,42,0.00
2008,10,06,07,43,0.00
2008,10,06,07,44,0.60
2008,10,06,07,45,1.20
2008,10,06,07,46,0.60
2008,10,06,07,47,0.00
2008,10,06,07,48,1.50
2008,10,06,07,49,1.00
2008,10,06,07,50,1.30
2008,10,06,07,51,2.10
2008,10,06,07,52,2.30
2008,10,06,07,53,1.50
2008,10,06,07,54,1.50
2008,10,06,07,55,1.50
2008,10,06,07,56,0.30
2008,10,06,07,57,1.00
2008,10,06,07,58,0.10
2008,10,06,07,59,0.00
2008,10,06,08,00,0.00
2008,10,06,08,01,1.00
2008,10,06,08,02,1.20
2008,10,06,08,03,2.50
2008,10,06,08,04,2.70
2008,10,06,08,05,2.60
2008,10,06,08,06,2.50
2008,10,06,08,07,2.00
2008,10,06,08,08,2.40
2008,10,06,08,09,2.20
2008,10,06,08,10,4.50
2008,10,06,08,11,2.10
2008,10,06,08,12,2.60
2008,10,06,08,13,1.70
2008,10,06,08,14,2.70
2008,10,06,08,15,1.90
2008,10,06,08,16,2.50
2008,10,06,08,17,0.40
2008,10,06,08,18,2.00
2008,10,06,08,19,3.50
2008,10,06,08,20,1.80
2008,10,06,08,21,1.40
2008,10,06,08,22,2.00
2008,10,06,08,23,2.40
2008,10,06,08,24,4.50
2008,10,06,08,25,4.70
2008,10,06,08,26,1.90
2008,10,06,08,27,2.90
2008,10,06,08,28,2.60
2008,10,06,08,29,3.50
2008,10,06,08,30,2.10
2008,10,06,08,31,1.90
2008,10,06,08,32,1.70
2008,10,06,08,33,1.90
2008,10,06,08,34,1.50
2008,10,06,08,35,0.00
2008,10,06,08,36,0.00
2008,10,06,08,37,1.30
2008,10,06,08,38,0.10
2008,10,06,08,39,0.00
2008,10,06,08,40,0.00
2008,10,06,08,41,0.00
2008,10,06,08,42,0.10
2008,10,06,08,43,0.00
2008,10,06,08,44,1.20
2008,10,06,08,45,0.40
2008,10,06,08,46,1.00
2008,10,06,08,47,0.00
2008,10,06,08,48,0.50
2008,10,06,08,49,0.00
2008,10,06,08,50,0.00
2008,10,06,08,51,0.60
2008,10,06,08,52,1.50
2008,10,06,08,53,0.30
2008,10,06,08,54,0.40
2008,10,06,08,55,0.20
2008,10,06,08,56,0.10
2008,10,06,08,57,0.20
2008,10,06,08,58,0.20
2008,10,06,08,59,0.00
2008,10,06,09,00,0.00
2008,10,06,09,01,0.40
2008,10,06,09,02,0.30
2008,10,06,09,03,0.00
2008,10,06,09,04,0.00
2008,10,06,09,05,0.30
2008,10,06,09,06,0.00
2008,10,06,09,07,0.00
2008,10,06,09,08,0.20
2008,10,06,09,09,0.00
2008,10,06,09,10,0.40
2008,10,06,09,11,0.60
2008,10,06,09,12,0.00
2008,10,06,09,13,0.70
2008,10,06,09,14,1.90
2008,10,06,09,15,0.60
2008,10,06,09,16,0.50
2008,10,06,09,17,0.40
2008,10,06,09,18,0.10
2008,10,06,09,19,0.00
2008,10,06,09,20,0.00
2008,10,06,09,21,0.10
2008,10,06,09,22,0.00
2008,10,06,09,23,0.00
2008,10,06,09,24,0.00
2008,10,06,09,25,1.00
2008,10,06,09,26,0.50
2008,10,06,09,27,0.10
2008,10,06,09,28,0.60
2008,10,06,09,29,0.00
2008,10,06,09,30,0.00
2008,10,06,09,31,0.00
2008,10,06,09,32,0.00
2008,10,06,09,33,0.00
2008,10,06,09,34,0.20
2008,10,06,09,35,0.00
2008,10,06,09,36,0.00
2008,10,06,09,37,0.00
2008,10,06,09,38,0.30
2008,10,06,09,39,0.40
2008,10,06,09,40,0.00
2008,10,06,09,41,0.00
2008,10,06,09,42,0.10
2008,10,06,09,43,0.00
2008,10,06,09,44,0.00
2008,10,06,09,45,0.00
2008,10,06,09,46,0.00
2008,10,06,09,47,0.00
2008,10,06,09,48,0.00
2008,10,06,09,49,0.00
2008,10,06,09,50,0.00
2008,10,06,09,51,0.00
2008,10,06,09,52,0.00
2008,10,06,09,53,0.00
2008,10,06,09,54,0.00
2008,10,06,09,55,0.00
2008,10,06,09,56,0.00
2008,10,06,09,57,0.30
2008,10,06,09,58,1.60
2008,10,06,09,59,1.20
2008,10,06,10,00,0.60
2008,10,06,10,01,0.00
2008,10,06,10,02,0.00
2008,10,06,10,03,0.00
2008,10,06,10,04,0.00
2008,10,06,10,05,0.00
2008,10,06,10,06,0.00
2008,10,06,10,07,0.00
2008,10,06,10,08,0.00
2008,10,06,10,09,0.00
2008,10,06,10,10,0.00
2008,10,06,10,11,0.00
2008,10,06,10,12,0.00
2008,10,06,10,13,0.00
2008,10,06,10,14,0.80
2008,10,06,10,15,0.00
2008,10,06,10,16,0.00
2008,10,06,10,17,0.00
2008,10,06,10,18,0.00
2008,10,06,10,19,0.10
2008,10,06,10,20,0.00
2008,10,06,10,21,0.00
2008,10,06,10,22,0.00
2008,10,06,10,23,0.00
2008,10,06,10,24,0.00
2008,10,06,10,25,0.00
2008,10,06,10,26,0.00
2008,10,06,10,27,0.00
2008,10,06,10,28,0.20
2008,10,06,10,29,0.10
2008,10,06,10,30,0.50
2008,10,06,10,31,1.80
2008,10,06,10,32,1.50
2008,10,06,10,33,1.20
2008,10,06,10,34,1.10
2008,10,06,10,35,0.50
2008,10,06,10,36,0.00
2008,10,06,10,37,0.30
2008,10,06,10,38,1.80
2008,10,06,10,39,1.10
2008,10,06,10,40,0.40
2008,10,06,10,41,0.00
2008,10,06,10,42,0.30
2008,10,06,10,43,0.60
2008,10,06,10,44,0.60
2008,10,06,10,45,0.70
2008,10,06,10,46,2.50
2008,10,06,10,47,0.30
2008,10,06,10,48,1.30
2008,10,06,10,49,0.40
2008,10,06,10,50,1.00
2008,10,06,10,51,2.80
2008,10,06,10,52,1.90
2008,10,06,10,53,0.80
2008,10,06,10,54,0.20
2008,10,06,10,55,0.20
2008,10,06,10,56,0.10
2008,10,06,10,57,1.30
2008,10,06,10,58,0.60
2008,10,06,10,59,2.60
2008,10,06,11,00,1.50
2008,10,06,11,01,2.00
2008,10,06,11,02,0.90
2008,10,06,11,03,0.10
2008,10,06,11,04,0.00
2008,10,06,11,05,0.00
2008,10,06,11,06,0.00
2008,10,06,11,07,0.90
2008,10,06,11,08,2.40
2008,10,06,11,09,0.70
2008,10,06,11,10,2.30
2008,10,06,11,11,2.00
2008,10,06,11,12,0.80
2008,10,06,11,13,0.90
2008,10,06,11,14,0.70
2008,10,06,11,15,2.00
2008,10,06,11,16,1.80
2008,10,06,11,17,0.00
2008,10,06,11,18,1.10
2008,10,06,11,19,2.40
2008,10,06,11,20,1.20
2008,10,06,11,21,1.80
2008,10,06,11,22,2.50
2008,10,06,11,23,1.00
2008,10,06,11,24,4.80
2008,10,06,11,25,6.30
2008,10,06,11,26,4.90
2008,10,06,11,27,0.90
2008,10,06,11,28,1.80
2008,10,06,11,29,3.60
2008,10,06,11,30,2.10
2008,10,06,11,31,2.10
2008,10,06,11,32,2.50
2008,10,06,11,33,2.30
2008,10,06,11,34,2.60
2008,10,06,11,35,3.40
2008,10,06,11,36,5.10
2008,10,06,11,37,7.00
2008,10,06,11,38,8.00
2008,10,06,11,39,5.90
2008,10,06,11,40,4.70
2008,10,06,11,41,5.10
2008,10,06,11,42,6.10
2008,10,06,11,43,3.90
2008,10,06,11,44,7.00
2008,10,06,11,45,7.50
2008,10,06,11,46,4.80
2008,10,06,11,47,4.20
2008,10,06,11,48,2.10
2008,10,06,11,49,5.50
2008,10,06,11,50,6.80
2008,10,06,11,51,5.60
2008,10,06,11,52,4.10
2008,10,06,11,53,3.50
2008,10,06,11,54,4.20
2008,10,06,11,55,4.40
2008,10,06,11,56,1.80
2008,10,06,11,57,1.40
2008,10,06,11,58,4.60
2008,10,06,11,59,6.90
2008,10,06,12,00,5.90
2008,10,06,12,01,4.60
2008,10,06,12,02,7.50
2008,10,06,12,03,6.40
2008,10,06,12,04,3.80
2008,10,06,12,05,6.70
2008,10,06,12,06,3.50
2008,10,06,12,07,6.00
2008,10,06,12,08,7.70
2008,10,06,12,09,5.80
2008,10,06,12,10,5.50
2008,10,06,12,11,1.60
2008,10,06,12,12,4.10
2008,10,06,12,13,4.70
2008,10,06,12,14,2.60
2008,10,06,12,15,2.90
2008,10,06,12,16,2.30
2008,10,06,12,17,2.10
2008,10,06,12,18,0.70
2008,10,06,12,19,1.90
2008,10,06,12,20,1.80
2008,10,06,12,21,0.40
2008,10,06,12,22,0.00
2008,10,06,12,23,0.60
2008,10,06,12,24,1.10
2008,10,06,12,25,1.20
2008,10,06,12,26,0.20
2008,10,06,12,27,0.00
2008,10,06,12,28,0.00
2008,10,06,12,29,0.00
2008,10,06,12,30,1.30
2008,10,06,12,31,1.30
2008,10,06,12,32,0.00
2008,10,06,12,33,1.30
2008,10,06,12,34,2.40
2008,10,06,12,35,3.00
2008,10,06,12,36,2.10
2008,10,06,12,37,0.80
2008,10,06,12,38,1.30
2008,10,06,12,39,1.20
2008,10,06,12,40,1.80
2008,10,06,12,41,2.20
2008,10,06,12,42,1.10
2008,10,06,12,43,0.00
2008,10,06,12,44,0.50
2008,10,06,12,45,4.00
2008,10,06,12,46,2.10
2008,10,06,12,47,1.30
2008,10,06,12,48,1.10
2008,10,06,12,49,0.00
2008,10,06,12,50,0.00
2008,10,06,12,51,0.00
2008,10,06,12,52,0.00
2008,10,06,12,53,0.80
2008,10,06,12,54,0.30
2008,10,06,12,55,0.20
2008,10,06,12,56,0.60
2008,10,06,12,57,0.70
2008,10,06,12,58,0.10
2008,10,06,12,59,0.10
2008,10,06,13,00,0.80
2008,10,06,13,01,2.40
2008,10,06,13,02,2.60
2008,10,06,13,03,0.80
2008,10,06,13,04,0.00
2008,10,06,13,05,0.00
2008,10,06,13,06,1.90
2008,10,06,13,07,0.00
2008,10,06,13,08,0.40
2008,10,06,13,09,1.10
2008,10,06,13,10,0.10
2008,10,06,13,11,0.00
2008,10,06,13,12,0.00
2008,10,06,13,13,1.20
2008,10,06,13,14,1.70
2008,10,06,13,15,0.80
2008,10,06,13,16,0.00
2008,10,06,13,17,0.00
2008,10,06,13,18,0.00
2008,10,06,13,19,0.00
2008,10,06,13,20,0.00
2008,10,06,13,21,0.00
2008,10,06,13,22,0.00
2008,10,06,13,23,0.00
2008,10,06,13,24,0.50
2008,10,06,13,25,1.90
2008,10,06,13,26,0.00
2008,10,06,13,27,0.00
2008,10,06,13,28,0.00
2008,10,06,13,29,0.00
2008,10,06,13,30,1.10
2008,10,06,13,31,2.50
2008,10,06,13,32,0.20
2008,10,06,13,33,4.20
2008,10,06,13,34,2.50
2008,10,06,13,35,4.50
2008,10,06,13,36,4.70
2008,10,06,13,37,4.70
2008,10,06,13,38,5.00
2008,10,06,13,39,5.60
2008,10,06,13,40,2.00
2008,10,06,13,41,2.70
2008,10,06,13,42,0.40
2008,10,06,13,43,1.70
2008,10,06,13,44,4.40
2008,10,06,13,45,3.30
2008,10,06,13,46,10.00
2008,10,06,13,47,9.90
2008,10,06,13,48,6.10
2008,10,06,13,49,4.70
2008,10,06,13,50,8.50
2008,10,06,13,51,4.30
2008,10,06,13,52,5.30
2008,10,06,13,53,2.00
2008,10,06,13,54,9.80
2008,10,06,13,55,7.00
2008,10,06,13,56,6.10
2008,10,06,13,57,8.80
2008,10,06,13,58,3.80
2008,10,06,13,59,1.90
2008,10,06,14,00,7.50
2008,10,06,14,01,4.60
2008,10,06,14,02,1.30
2008,10,06,14,03,0.00
2008,10,06,14,04,0.90
2008,10,06,14,05,2.60
2008,10,06,14,06,5.20
2008,10,06,14,07,6.80
2008,10,06,14,08,8.70
2008,10,06,14,09,6.50
2008,10,06,14,10,7.40
2008,10,06,14,11,9.20
2008,10,06,14,12,5.00
2008,10,06,14,13,7.30
2008,10,06,14,14,5.90
2008,10,06,14,15,4.90
2008,10,06,14,16,6.60
2008,10,06,14,17,7.30
2008,10,06,14,18,6.60
2008,10,06,14,19,2.90
2008,10,06,14,20,1.20
2008,10,06,14,21,1.70
2008,10,06,14,22,3.50
2008,10,06,14,23,2.50
2008,10,06,14,24,4.70
2008,10,06,14,25,6.10
2008,10,06,14,26,5.60
2008,10,06,14,27,9.40
2008,10,06,14,28,8.80
2008,10,06,14,29,4.70
2008,10,06,14,30,6.20
2008,10,06,14,31,7.70
2008,10,06,14,32,9.50
2008,10,06,14,33,3.70
2008,10,06,14,34,6.60
2008,10,06,14,35,8.30
2008,10,06,14,36,2.30
2008,10,06,14,37,5.10
2008,10,06,14,38,3.10
2008,10,06,14,39,6.10
2008,10,06,14,40,9.30
2008,10,06,14,41,7.50
2008,10,06,14,42,5.90
2008,10,06,14,43,5.80
2008,10,06,14,44,6.10
2008,10,06,14,45,6.60
2008,10,06,14,46,6.80
2008,10,06,14,47,6.60
2008,10,06,14,48,9.60
2008,10,06,14,49,9.20
2008,10,06,14,50,8.90
2008,10,06,14,51,7.10
2008,10,06,14,52,6.30
2008,10,06,14,53,5.70
2008,10,06,14,54,4.20
2008,10,06,14,55,5.40
2008,10,06,14,56,2.10
2008,10,06,14,57,5.70
2008,10,06,14,58,6.40
2008,10,06,14,59,3.10
2008,10,06,15,00,4.60
2008,10,06,15,01,9.20
2008,10,06,15,02,8.50
2008,10,06,15,03,10.10
2008,10,06,15,04,5.70
2008,10,06,15,05,6.20
2008,10,06,15,06,2.90
2008,10,06,15,07,3.70
2008,10,06,15,08,5.70
2008,10,06,15,09,5.60
2008,10,06,15,10,5.80
2008,10,06,15,11,4.10
2008,10,06,15,12,7.30
2008,10,06,15,13,9.00
2008,10,06,15,14,7.70
2008,10,06,15,15,6.90
2008,10,06,15,16,9.50
2008,10,06,15,17,5.20
2008,10,06,15,18,8.00
2008,10,06,15,19,5.40
2008,10,06,15,20,7.50
2008,10,06,15,21,6.50
2008,10,06,15,22,7.10
2008,10,06,15,23,10.10
2008,10,06,15,24,3.50
2008,10,06,15,25,2.90
2008,10,06,15,26,4.00
2008,10,06,15,27,3.80
2008,10,06,15,28,10.40
2008,10,06,15,29,8.70
2008,10,06,15,30,5.60
2008,10,06,15,31,7.40
2008,10,06,15,32,9.70
2008,10,06,15,33,10.30
2008,10,06,15,34,9.60
2008,10,06,15,35,7.60
2008,10,06,15,36,10.60
2008,10,06,15,37,9.70
2008,10,06,15,38,8.80
2008,10,06,15,39,9.90
2008,10,06,15,40,6.60
2008,10,06,15,41,8.00
2008,10,06,15,42,4.30
2008,10,06,15,43,5.10
2008,10,06,15,44,8.00
2008,10,06,15,45,7.00
2008,10,06,15,46,2.60
2008,10,06,15,47,7.30
2008,10,06,15,48,4.20
2008,10,06,15,49,4.50
2008,10,06,15,50,6.40
2008,10,06,15,51,4.10
2008,10,06,15,52,4.90
2008,10,06,15,53,4.70
2008,10,06,15,54,10.50
2008,10,06,15,55,8.90
2008,10,06,15,56,8.00
2008,10,06,15,57,3.80
2008,10,06,15,58,6.40
2008,10,06,15,59,9.60
2008,10,06,16,00,6.50
2008,10,06,16,01,6.50
2008,10,06,16,02,4.60
2008,10,06,16,03,6.40
2008,10,06,16,04,4.20
2008,10,06,16,05,5.20
2008,10,06,16,06,6.70
2008,10,06,16,07,3.90
2008,10,06,16,08,7.60
2008,10,06,16,09,5.50
2008,10,06,16,10,5.00
2008,10,06,16,11,8.80
2008,10,06,16,12,7.40
2008,10,06,16,13,3.70
2008,10,06,16,14,8.80
2008,10,06,16,15,5.70
2008,10,06,16,16,3.10
2008,10,06,16,17,1.80
2008,10,06,16,18,2.40
2008,10,06,16,19,10.30
2008,10,06,16,20,6.20
2008,10,06,16,21,4.10
2008,10,06,16,22,8.10
2008,10,06,16,23,5.30
2008,10,06,16,24,7.10
2008,10,06,16,25,5.90
2008,10,06,16,26,10.30
2008,10,06,16,27,7.80
2008,10,06,16,28,7.30
2008,10,06,16,29,5.40
2008,10,06,16,30,8.60
2008,10,06,16,31,9.80
2008,10,06,16,32,6.00
2008,10,06,16,33,4.70
2008,10,06,16,34,8.20
2008,10,06,16,35,7.00
2008,10,06,16,36,6.20
2008,10,06,16,37,5.10
2008,10,06,16,38,6.90
2008,10,06,16,39,8.10
2008,10,06,16,40,6.30
2008,10,06,16,41,10.30
2008,10,06,16,42,10.80
2008,10,06,16,43,6.40
2008,10,06,16,44,7.80
2008,10,06,16,45,9.10
2008,10,06,16,46,6.00
2008,10,06,16,47,10.50
2008,10,06,16,48,8.70
2008,10,06,16,49,8.00
2008,10,06,16,50,5.80
2008,10,06,16,51,8.90
2008,10,06,16,52,5.20
2008,10,06,16,53,10.80
2008,10,06,16,54,6.20
2008,10,06,16,55,9.20
2008,10,06,16,56,9.00
2008,10,06,16,57,7.20
2008,10,06,16,58,5.80
2008,10,06,16,59,6.60
2008,10,06,17,00,8.60
2008,10,06,17,01,5.90
2008,10,06,17,02,4.00
2008,10,06,17,03,4.70
2008,10,06,17,04,5.60
2008,10,06,17,05,0.70
2008,10,06,17,06,5.30
2008,10,06,17,07,5.30
2008,10,06,17,08,7.10
2008,10,06,17,09,7.00
2008,10,06,17,10,8.50
2008,10,06,17,11,9.40
2008,10,06,17,12,8.90
2008,10,06,17,13,8.90
2008,10,06,17,14,7.70
2008,10,06,17,15,8.90
2008,10,06,17,16,8.60
2008,10,06,17,17,8.70
2008,10,06,17,18,12.30
2008,10,06,17,19,10.00
2008,10,06,17,20,8.80
2008,10,06,17,21,9.90
2008,10,06,17,22,11.30
2008,10,06,17,23,7.10
2008,10,06,17,24,5.50
2008,10,06,17,25,5.80
2008,10,06,17,26,3.60
2008,10,06,17,27,3.80
2008,10,06,17,28,11.60
2008,10,06,17,29,7.30
2008,10,06,17,30,8.30
2008,10,06,17,31,4.20
2008,10,06,17,32,16.30
2008,10,06,17,33,12.30
2008,10,06,17,34,4.90
2008,10,06,17,35,7.50
2008,10,06,17,36,9.10
2008,10,06,17,37,7.50
2008,10,06,17,38,9.70
2008,10,06,17,39,8.10
2008,10,06,17,40,8.60
2008,10,06,17,41,9.20
2008,10,06,17,42,7.50
2008,10,06,17,43,11.50
2008,10,06,17,44,3.00
2008,10,06,17,45,1.40
2008,10,06,17,46,13.00
2008,10,06,17,47,6.90
2008,10,06,17,48,3.60
2008,10,06,17,49,7.20
2008,10,06,17,50,8.50
2008,10,06,17,51,10.90
2008,10,06,17,52,8.70
2008,10,06,17,53,7.20
2008,10,06,17,54,3.60
2008,10,06,17,55,7.60
2008,10,06,17,56,5.90
2008,10,06,17,57,5.30
2008,10,06,17,58,6.60
2008,10,06,17,59,7.50
2008,10,06,18,00,4.00
2008,10,06,18,01,4.30
2008,10,06,18,02,4.60
2008,10,06,18,03,4.50
2008,10,06,18,04,8.70
2008,10,06,18,05,3.50